KLM39F EHAM-EKCH

Flight info

Callsign KLM39F
Flight time N/A
Altitude 33000
Route ANDIK N873 JUIST DCT DOSUR P729 TUDLO
Aircraft B738/M-SDE2E3FGHIRWXY/LB1

Departure

Time 2026-05-04 18:24
Airport Amsterdam Airport Schiphol (EHAM)

Arrival

Time N/A
Airport Copenhagen Kastrup Airport (EKCH)
Time Latitude Longitude Altitude Speed Heading
2026-05-04 17:58 52.30914 4.76794 -2 ft 0 kts 183°
2026-05-04 18:12 52.30936 4.76797 -2 ft 4 kts 184°
2026-05-04 18:12 52.30963 4.76801 -2 ft 4 kts 185°
2026-05-04 18:13 52.30990 4.76804 -2 ft 4 kts 180°
2026-05-04 18:13 52.31014 4.76798 -2 ft 4 kts 135°
2026-05-04 18:13 52.31025 4.76807 -2 ft 0 kts 33°
2026-05-04 18:16 52.31051 4.76835 -2 ft 10 kts 33°
2026-05-04 18:16 52.31109 4.76897 -2 ft 10 kts 33°
2026-05-04 18:17 52.31238 4.77035 -2 ft 14 kts 33°
2026-05-04 18:17 52.31332 4.77137 -2 ft 18 kts 33°
2026-05-04 18:17 52.31478 4.76991 -2 ft 21 kts 269°
2026-05-04 18:18 52.31472 4.76732 -2 ft 25 kts 268°
2026-05-04 18:18 52.31462 4.76427 -2 ft 29 kts 267°
2026-05-04 18:18 52.31452 4.76092 -2 ft 32 kts 266°
2026-05-04 18:18 52.31437 4.75710 -2 ft 35 kts 266°
2026-05-04 18:19 52.31407 4.74861 -2 ft 40 kts 267°
2026-05-04 18:19 52.31393 4.74403 -2 ft 42 kts 267°
2026-05-04 18:19 52.31442 4.74139 -2 ft 15 kts
2026-05-04 18:20 52.31608 4.74158 -2 ft 30 kts
2026-05-04 18:20 52.31813 4.74179 -2 ft 29 kts
2026-05-04 18:20 52.32001 4.74193 -2 ft 13 kts 350°
2026-05-04 18:20 52.32036 4.74064 -3 ft 13 kts 272°
2026-05-04 18:21 52.32052 4.73603 -2 ft 12 kts 273°
2026-05-04 18:21 52.32206 4.73191 -2 ft 11 kts 319°
2026-05-04 18:21 52.32413 4.72898 -2 ft 9 kts 319°
2026-05-04 18:21 52.32604 4.72632 -2 ft 8 kts 320°
2026-05-04 18:22 52.32724 4.72439 -2 ft 8 kts 311°
2026-05-04 18:22 52.32984 4.71919 -2 ft 18 kts 278°
2026-05-04 18:22 52.33038 4.71363 -2 ft 10 kts 221°
2026-05-04 18:22 52.32898 4.71163 -2 ft 20 kts 222°
2026-05-04 18:23 52.32869 4.70941 -3 ft 20 kts 295°
2026-05-04 18:23 52.32997 4.70905 -4 ft 23 kts
2026-05-04 18:23 52.33369 4.70942 -3 ft 89 kts
2026-05-04 18:23 52.34211 4.71016 7 ft 150 kts
2026-05-04 18:24 52.35315 4.71123 583 ft 162 kts
2026-05-04 18:24 52.36442 4.71285 1507 ft 161 kts
2026-05-04 18:24 52.37565 4.71392 2275 ft 173 kts
2026-05-04 18:24 52.38873 4.71496 2609 ft 204 kts
2026-05-04 18:25 52.40376 4.71616 2860 ft 228 kts
2026-05-04 18:25 52.43139 4.71840 3371 ft 259 kts
2026-05-04 18:25 52.52292 4.72950 6581 ft 302 kts 17°
2026-05-04 18:25 52.56923 4.84248 11025 ft 289 kts 82°
2026-05-04 18:26 52.59340 4.97222 13873 ft 307 kts 54°
2026-05-04 18:26 52.66122 5.10740 17108 ft 325 kts 49°
2026-05-04 18:26 52.74316 5.27846 19315 ft 383 kts 51°
2026-05-04 18:26 52.88454 5.57965 22786 ft 436 kts 50°